| time (UTC) | temp C | wind direction | speed KPH | gust KPH | rain 1hr cm | rain 24hr cm | rain mn cm | humidity % | barometer mb |
| 20260505041601 | 13 | 99 | 0.0 | 12.9 | 0.00 | 0.00 | 0.00 | 73 | 1006.3 |
| 20260505040058 | 13 | 140 | 3.2 | 9.7 | 0.00 | 0.00 | 0.00 | 75 | 1006.3 |
| 20260505034606 | 12 | 98 | 6.4 | 12.9 | 0.00 | 0.00 | 0.00 | 79 | 1006.4 |
| 20260505033047 | 12 | 209 | 0.0 | 8.0 | 0.00 | 0.00 | 0.00 | 81 | 1006.4 |
| 20260505031546 | 11 | 258 | 1.6 | 6.4 | 0.00 | 0.00 | 0.00 | 84 | 1006.5 |
| 20260505030049 | 11 | 272 | 1.6 | 6.4 | 0.00 | 0.00 | 0.00 | 84 | 1006.5 |
| 20260505024549 | 12 | 109 | 0.0 | 4.8 | 0.00 | 0.00 | 0.00 | 82 | 1006.3 |
| 20260505023047 | 12 | 244 | 1.6 | 6.4 | 0.00 | 0.00 | 0.00 | 80 | 1006.4 |
| 20260505021545 | 13 | 219 | 0.0 | 1.6 | 0.00 | 0.00 | 0.00 | 80 | 1006.6 |
| 20260505020059 | 13 | 219 | 0.0 | 3.2 | 0.00 | 0.00 | 0.00 | 79 | 1006.7 |
| 20260505014543 | 13 | 219 | 0.0 | 3.2 | 0.00 | 0.00 | 0.00 | 76 | 1006.6 |
| 20260505013044 | 13 | 9 | 1.6 | 8.0 | 0.00 | 0.00 | 0.00 | 72 | 1006.7 |
| 20260505011545 | 15 | 275 | 1.6 | 4.8 | 0.00 | 0.00 | 0.00 | 64 | 1006.6 |
| 20260505010054 | 16 | 238 | 0.0 | 3.2 | 0.00 | 0.00 | 0.00 | 57 | 1006.2 |
| 20260505004642 | 17 | 238 | 0.0 | 4.8 | 0.00 | 0.00 | 0.00 | 55 | 1005.9 |
| 20260505003039 | 17 | 184 | 3.2 | 8.0 | 0.00 | 0.00 | 0.00 | 47 | 1005.8 |
| 20260505001541 | 18 | 101 | 1.6 | 9.7 | 0.00 | 0.00 | 0.00 | 45 | 1005.8 |
| 20260505000039 | 18 | 89 | 4.8 | 16.1 | 0.00 | 0.00 | 0.00 | 44 | 1006.0 |
| 20260504234538 | 19 | 293 | 4.8 | 14.5 | 0.00 | 0.00 | 0.00 | 43 | 1006.0 |
| 20260504233037 | 19 | 164 | 4.8 | 14.5 | 0.00 | 0.00 | 0.00 | 41 | 1005.9 |
| 20260504231540 | 19 | 156 | 4.8 | 14.5 | 0.00 | 0.00 | 0.00 | 40 | 1005.7 |
| 20260504230037 | 19 | 249 | 1.6 | 14.5 | 0.00 | 0.00 | 0.00 | 39 | 1005.8 |
| 20260504224540 | 20 | 241 | 3.2 | 16.1 | 0.00 | 0.00 | 0.00 | 39 | 1005.8 |
| 20260504223035 | 20 | 124 | 8.0 | 20.9 | 0.00 | 0.00 | 0.00 | 38 | 1005.8 |
| 20260504221543 | 20 | 89 | 3.2 | 25.7 | 0.00 | 0.00 | 0.00 | 37 | 1005.7 |
| 20260504220033 | 21 | 205 | 12.9 | 29.0 | 0.00 | 0.00 | 0.00 | 35 | 1005.7 |
| 20260504214531 | 21 | 254 | 9.7 | 24.1 | 0.00 | 0.00 | 0.00 | 33 | 1005.7 |
| 20260504213038 | 21 | 271 | 4.8 | 22.5 | 0.00 | 0.00 | 0.00 | 30 | 1005.5 |
| 20260504211534 | 22 | 188 | 6.4 | 25.7 | 0.00 | 0.00 | 0.00 | 29 | 1005.6 |
| 20260504210028 | 22 | 308 | 11.3 | 27.4 | 0.00 | 0.00 | 0.00 | 28 | 1005.7 |
| 20260504204531 | 22 | 181 | 12.9 | 24.1 | 0.00 | 0.00 | 0.00 | 31 | 1005.6 |
| 20260504203027 | 22 | 236 | 6.4 | 29.0 | 0.00 | 0.00 | 0.00 | 31 | 1005.8 |
| 20260504201527 | 22 | 217 | 11.3 | 17.7 | 0.00 | 0.00 | 0.00 | 29 | 1005.9 |
| 20260504200026 | 22 | 182 | 9.7 | 22.5 | 0.00 | 0.00 | 0.00 | 29 | 1006.0 |
| 20260504194524 | 22 | 254 | 8.0 | 25.7 | 0.00 | 0.00 | 0.00 | 27 | 1006.4 |
| 20260504193019 | 21 | 103 | 3.2 | 20.9 | 0.00 | 0.00 | 0.00 | 30 | 1006.6 |
| 20260504191515 | 21 | 132 | 9.7 | 32.2 | 0.00 | 0.00 | 0.00 | 32 | 1006.9 |
| 20260504190019 | 21 | 64 | 4.8 | 27.4 | 0.00 | 0.00 | 0.00 | 33 | 1007.1 |
| 20260504184527 | 21 | 12 | 3.2 | 29.0 | 0.00 | 0.00 | 0.00 | 35 | 1007.1 |
| 20260504183010 | 21 | 284 | 6.4 | 22.5 | 0.00 | 0.00 | 0.00 | 35 | 1007.4 |
| 20260504181509 | 21 | 264 | 11.3 | 29.0 | 0.00 | 0.00 | 0.00 | 33 | 1007.7 |
| 20260504180006 | 20 | 212 | 4.8 | 19.3 | 0.00 | 0.00 | 0.00 | 36 | 1007.8 |
| 20260504174503 | 20 | 44 | 6.4 | 20.9 | 0.00 | 0.00 | 0.00 | 36 | 1008.0 |
| 20260504173105 | 19 | 349 | 11.3 | 37.0 | 0.00 | 0.00 | 0.00 | 40 | 1008.1 |
| 20260504171601 | 19 | 31 | 9.7 | 22.5 | 0.00 | 0.00 | 0.00 | 38 | 1008.3 |
| 20260504081517 | 0 | 355 | 0.0 | 4.8 | 0.00 | 0.00 | 0.00 | 93 | 1012.2 |
| 20260504044549 | 1 | 346 | 0.0 | 3.2 | 0.00 | 0.00 | 0.00 | 87 | 1013.1 |
| 20260504043047 | 1 | 346 | 0.0 | 3.2 | 0.00 | 0.00 | 0.00 | 87 | 1013.1 |